Miscellaneous Local Product
Issued by NWS North Platte, NE

Home | Current Version | Previous Version | Text Only | Print | Product List | Glossary On
Versions: 1 2 3 4 5 6 7 8 9 10 11 12 13 14 15 16 17 18 19 20 21 22 23 24 25 26 27 28 29 30 31 32 33 34 35 36 37 38 39 40 41 42 43 44 45 46 47 48 49 50
000
AXUS43 KLBF 310610
MISLBF


WESTERN AND NORTH CENTRAL NEBRASKA HOURLY WEATHER ROUNDUP
NATIONAL WEATHER SERVICE NORTH PLATTE NE
100 AM CDT MON AUG 31 2015

NOTE: "FAIR" INDICATES FEW OR NO CLOUDS BELOW 12,000 FEET WITH NO
SIGNIFICANT WEATHER AND/OR OBSTRUCTIONS TO VISIBILITY.

NOTE: STATIONS NOT REPORTING VARIABLES SUCH AS SKY/WEATHER OR
PRESSURE ARE PROVIDED BY THE NEBRASKA DEPARTMENT OF
ROADS...RAWS...AND APRS NETWORKS...AND ARE NOT UNDER
NATIONAL WEATHER SERVICE QUALITY CONTROL.

...OBSERVATIONS IN AND NEAR THE EASTERN PANHANDLE OF NEBRASKA...

CITY           SKY/WX    TMP DP  RH WIND       PRES   REMARKS
PINE RIDGE     PTCLDY    78  45  30 S14       29.81S
CHADRON        MOCLDY    69  50  50 W5        29.80F
ALLIANCE       MOCLDY    75  50  41 S12       29.89R
SIDNEY         CLEAR     71  49  45 SW9       29.97S
CRESCENT LAKE    N/A     71  47  43 S7          N/A
BIG SPRINGS      N/A     71  44  38 S12         N/A
$$

...OBSERVATIONS IN NORTH CENTRAL NEBRASKA...

CITY           SKY/WX    TMP DP  RH WIND       PRES   REMARKS
VALENTINE      CLEAR     72  58  61 SW17      29.84R
THEDFORD       CLEAR     70  58  66 S17G23    29.90R
AINSWORTH      CLEAR     69  59  71 S18G25    29.87S
O`NEILL        CLEAR     67  65  93 S13       29.90S
ORD            CLEAR     66  63  90 S8        29.92R
BROKEN BOW     CLEAR     67  62  84 S10       29.94R
SPRINGVIEW       N/A     69  60  74 CALM        N/A
SARGENT          N/A     64  62  92 CALM        N/A
CHAMBERS         N/A     66  64  93 S10         N/A
EWING            N/A     67  62  83 S7G14       N/A
$$

...OBSERVATIONS IN SOUTHWEST NEBRASKA AND FAR NORTHEAST COLORADO...

CITY           SKY/WX    TMP DP  RH WIND       PRES   REMARKS
WRAY           FAIR      73  39  29 S16G23    29.95R
HOLYOKE        FAIR      68  43  40 S7        29.95R
IMPERIAL       CLEAR     72  44  36 S17       29.93S
OGALLALA       CLEAR     71  42  34 N3        29.93R
NORTH PLATTE   CLEAR     68  57  68 SE12      29.93R
MCCOOK         CLEAR     67  52  58 S9        29.94R
LEXINGTON      CLEAR     67  64  88 S15       29.94S
PAXTON           N/A     70  48  45 S13         N/A
BRADY            N/A     66  59  79 CALM        N/A
CALLAWAY         N/A     63  62  95 S12         N/A
$$

...OBSERVATIONS IN CENTRAL LINCOLN COUNTY AREA...

CITY           SKY/WX    TMP DP  RH WIND       PRES   REMARKS
N.P. AIRPORT   CLEAR     68  57  68 SE12      29.93R
N.P. DOWNTOWN    N/A     69  58  68 SE3G13      N/A
N.P. HILLCREST   N/A     69  58  68 SE12G18     N/A
$$

...SOME OBSERVATIONS FROM AROUND THE REGION...

CITY           SKY/WX    TMP DP  RH WIND       PRES   REMARKS
DENVER         MOCLDY    78  44  29 S18G24    30.00F
LARAMIE        CLOUDY    63  44  50 SW10G23   30.17F
CHEYENNE       MOCLDY    67  46  47 W6        30.07F
SCOTTSBLUFF    CLOUDY    80  47  31 SW8       29.92R
RAPID CITY     MOCLDY    68  57  68 S7        29.78R
PIERRE         CLEAR     71  58  63 SE10      29.70S
WINNER         FAIR      75  58  55 S25G32    29.77S
SIOUX FALLS    FAIR      67  64  90 S14       29.90S
OMAHA          FAIR      68  66  93 S8        29.97S
GRAND ISLAND   FAIR      66  64  93 S14       29.96S
KANSAS CITY    FAIR      73  69  87 SE6       29.97S
WICHITA        FAIR      72  68  87 SE6       29.96R
HAYS           FAIR      64  55  72 SE6       29.97R
LIBERAL        FAIR      66  50  55 SE7       29.99R
GOODLAND       CLEAR     64  47  53 S13       29.99R
$$



USA.gov is the U.S. government's official web portal to all federal, state and local government web resources and services.